Regional Weather Roundup
Issued by NWS

Home | Current Version | Previous Version | Graphics & Text | Print | Product List | Glossary On
Versions: 1 2 3 4 5 6 7 8 9 10 11 12 13 14 15 16 17 18 19 20 21 22 23 24 25 26 27 28 29 30 31 32 33 34 35 36 37 38 39 40 41 42 43 44 45 46 47 48 49 50
000
ASUS43 KLOT 180310
RWRIL

ILLINOIS REGIONAL WEATHER ROUNDUP
NATIONAL WEATHER SERVICE CHICAGO/ROMEOVILLE IL
1000 PM CDT WED SEP 17 2014

NOTE: "FAIR" INDICATES FEW OR NO CLOUDS BELOW 12,000 FEET WITH NO
SIGNIFICANT WEATHER AND/OR OBSTRUCTIONS TO VISIBILITY.

* THESE STATIONS ARE NOT UNDER NWS QUALITY CONTROL. THEY ALSO MAY NOT
  REPORT WEATHER SUCH AS PRECIPITATION OR FOG.

ILZ001-002-007-009-015-016-024-180400-
NORTHWEST ILLINOIS

CITY           SKY/WX    TMP DP  RH WIND       PRES   REMARKS
MOLINE         CLEAR     56  52  86 CALM      30.02R
STERLING*      CLEAR     54  48  82 CALM      30.02R
SAVANNA*       CLEAR     55  52  90 CALM      30.02R
$$

ILZ003-004-008-010-011-017-018-180400-
NORTH CENTRAL ILLINOIS

CITY           SKY/WX    TMP DP  RH WIND       PRES   REMARKS
ROCKFORD       CLEAR     55  52  89 CALM      30.04R
FREEPORT*      CLEAR     52  51  94 CALM      30.04R
ROCHELLE*      CLEAR     50  48  93 CALM      30.03R
DE KALB*       CLEAR     54  47  78 E6        30.03S
PERU*          CLEAR     57  51  81 CALM      30.02S
$$

ILZ005-006-012>014-019>023-180400-
NORTHEAST ILLINOIS

CITY           SKY/WX    TMP DP  RH WIND       PRES   REMARKS
CHICAGO-OHARE  CLEAR     61  47  59 CALM      30.02R
CHICAGO-MIDWAY CLEAR     62  51  67 CALM      30.02R
AURORA         CLEAR     52  48  86 NE3       30.03R
LANSING*       CLEAR     56  49  78 E3        30.02S
JOLIET*        CLEAR     55  48  75 CALM      30.03R
WAUKEGAN       CLEAR     50  48  93 CALM      30.02R
DUPAGE AIRPORT CLEAR     54  48  80 CALM      30.02R
KANKAKEE*      CLEAR     54  50  86 E3        30.03R
WHEELING       CLEAR     56  50  80 CALM      30.04R
MORRIS*        CLEAR     54  50  88 CALM      30.02R
ROMEOVILLE*    CLEAR     54  48  81 E3        30.02S
NORTHERLY ISL    N/A     60  53  77 SE2         N/A
$$

LMZ740>746-180400-
SOUTHERN LAKE MICHIGAN

STATION/POSITION SKY/WX   TEMP    WIND        PRES    VSBY  WAVE
                          AIR SEA DIR/SP/G                  HT/PER
                          (F)     (DEG/KT/KT) (MB)    (MI)  (FT/S)
SOUTHERN BUOY              62 64  170/  4/  6 1016.7R         0
WAUKEGAN HARBOR            59     210/  4/  5   N/A
HARRISON CRIB              62     110/  7/  8   N/A
BURNHAM HARBOR             60      CALM  /  5   N/A
CALUMET HARBOR             62     100/  3/  5 1015.5R
MICHIGAN CITY              58      90/  5/  7   N/A
MICHIGAN CITY 6N           61 65  100/  6/  8   N/A           1
ST. JOSEPH                 62 66  140/  4/  8   N/A           0
$$

ILZ025>027-034>036-040-047-049-050-058-095>099-180400-
WEST-CENTRAL ILLINOIS

CITY           SKY/WX    TMP DP  RH WIND       PRES   REMARKS
QUINCY         MOCLDY    60  56  86 SE7       30.00R
GALESBURG*     CLEAR     51  47  89 CALM      30.02R
MACOMB*        CLEAR     52  50  95 NE3       30.03S
JACKSONVILLE*  PTCLDY    56  54  93 CALM      30.02R
PITTSFIELD*    MOCLDY    57  54  89 CALM      30.02R FOG
$$

ILZ028>032-037-038-041>044-048-051>054-059>061-180400-
CENTRAL ILLINOIS

CITY           SKY/WX    TMP DP  RH WIND       PRES   REMARKS
PONTIAC        MOCLDY    55  54  94 CALM      30.02R
DECATUR        MOCLDY    59  54  83 CALM      30.03R
PEORIA         CLEAR     57  53  86 CALM      30.02R
LACON*         CLEAR     53  51  94 CALM      30.01R
LINCOLN*       CLOUDY    58  54  84 CALM      30.00S
SPRINGFIELD    MOCLDY    57  54  89 CALM      30.01F
TAYLORVILLE    CLOUDY    54  52  94 NE3       30.01S
$$

ILZ033-039-045-046-055>057-062-063-180400-
EAST-CENTRAL ILLINOIS

CITY           SKY/WX    TMP DP  RH WIND       PRES   REMARKS
CHAMPAIGN      CLOUDY    56  52  86 SW5       30.03R
DANVILLE*      MOCLDY    55  54  94 SW3       30.00R
RANTOUL*       MOCLDY    60  52  75 SW3       30.03R
MATTOON        CLOUDY    57  52  83 CALM      30.01S
PARIS*         CLEAR     50  50  99 CALM      30.03R
$$

ILZ079-100>102-180400-
SOUTHWEST ILLINOIS

CITY           SKY/WX    TMP DP  RH WIND       PRES   REMARKS
ALTON          CLOUDY    61  55  82 CALM      29.99R
BELLEVILLE     CLOUDY    61  58  90 CALM      29.99R
CAHOKIA*       CLOUDY    63  57  81 E5        29.99R
SPARTA*        CLOUDY    61  59  93 CALM      30.00R
$$

ILZ064>066-069>071-074>076-080>082-084>086-088>090-092>094-180400-
SOUTH-CENTRAL ILLINOIS

CITY           SKY/WX    TMP DP  RH WIND       PRES   REMARKS
CARBONDALE     CLOUDY    63  58  83 S3        29.98R
CAIRO*         CLEAR     60  57  88 CALM      29.98R FOG
EFFINGHAM*     CLOUDY    59  55  89 CALM      30.01R
MARION         CLOUDY    64  59  82 CALM      29.98R
MT. VERNON     CLOUDY    61  54  77 N5        30.00R
CENTRALIA*     CLOUDY    60  55  83 CALM      30.00R
SALEM*         CLOUDY    62  58  86 CALM      30.00R
METROPOLIS*    PTCLDY    62  62  99 CALM      29.97R
$$

ILZ067-068-072-073-078-083-087-091-180400-
SOUTHEAST ILLINOIS

CITY           SKY/WX    TMP DP  RH WIND       PRES   REMARKS
LAWRENCEVILLE  CLOUDY    60  57  89 NE5       30.01R
FLORA*         CLEAR     60  55  83 N5        30.01R
FAIRFIELD*     CLOUDY   N/A N/A N/A NE5       30.00R
HARRISBURG*    CLOUDY    64  60  84 CALM      29.99R
ROBINSON*      FOG       54  54  99 CALM      30.02S VSB 1/2
CARMI*         CLOUDY    64  60  86 CALM      29.98R
$$

ABBREVIATIONS USED IN REMARKS
   TC - TEMPERATURE IN CELSIUS
  WCI - WIND CHILL INDEX
   HX - HEAT INDEX
  VSB - VISIBILITY
$$



USA.gov is the U.S. government's official web portal to all federal, state and local government web resources and services.